Location: Sternwarte_Laufen
(47.9344°N, 12.9346°E)
Time: 08:23:26
(UTC+01:00)

ISS - Pass Details

Date: 27 October 2018
Orbit: 401 x 408 km, 51.6° (Epoch: 20 November)

Event Time Altitude Azimuth Distance (km) Brightness Sun altitude
Rises 06:10:29 0° 193° (SSW) 2,307 -0.1 -16.4°
Reaches altitude 10° 06:13:25 10° 163° (SSE) 1,456 -0.8 -15.9°
Maximum altitude 06:14:58 13° 135° (SE) 1,302 -0.6 -15.6°
Drops below altitude 10° 06:16:30 10° 107° (ESE) 1,463 0.2 -15.4°
Sets 06:19:28 0° 77° (ENE) 2,331 1.6 -14.9°
